GFSNIL_850_spd_045.txt.gz
Wind_Speed
43 45 47 48 49 46 44 40 38 38 38 39 37 32 33 35 36 37 41 34 32 35
42 44 47 50 46 47 45 43 41 39 39 40 37 30 39 28 33 38 37 33 38 36
45 46 48 51 51 50 48 46 42 42 42 38 39 31 36 35 38 34 37 37 41 38
52 51 49 48 47 49 49 46 41 43 38 30 36 35 37 39 39 33 33 40 39 37
51 49 44 40 45 48 48 39 46 39 31 33 42 40 37 37 34 33 36 39 35 35
53 50 51 47 37 42 53 49 44 28 36 42 34 31 35 35 33 34 33 34 28 24
51 51 48 49 43 40 44 41 34 38 35 41 36 33 29 27 28 30 28 23 20 21
45 45 47 48 41 39 40 40 37 40 40 46 39 35 29 27 25 23 21 20 20 21
42 41 39 42 39 35 37 37 41 35 42 34 30 25 23 21 23 24 22 20 21 20
39 41 43 46 44 40 31 29 29 31 27 24 24 23 24 26 25 23 23 22 22 25
34 38 40 42 36 27 27 24 26 25 26 25 25 26 27 26 25 23 22 23 24 22
28 28 27 26 26 28 25 26 26 26 26 26 26 26 26 24 23 23 24 23 21 21
20 18 22 24 25 24 23 23 22 22 21 22 22 21 21 20 20 20 20 19 20 21
21 23 24 24 23 23 22 21 21 21 21 21 21 22 19 17 17 17 17 16 17 19

GFSNIL_850_spd_048.txt.gz
Wind_Speed
40 42 46 45 46 47 50 51 51 49 46 42 39 36 38 41 39 36 32 36 38 37
39 43 44 42 41 42 42 43 43 40 41 41 43 41 38 38 41 38 31 30 35 34
38 39 40 40 40 41 39 40 39 40 42 43 44 45 44 36 38 39 33 40 37 36
40 37 34 33 33 35 37 43 44 45 44 45 44 48 47 31 34 35 38 34 36 34
39 42 41 43 39 31 41 45 44 48 48 41 45 40 36 36 35 35 31 33 31 32
46 46 46 48 41 45 45 39 34 43 43 46 48 43 34 30 35 34 32 32 32 31
50 51 52 49 46 50 54 49 47 43 44 44 41 41 38 39 31 30 29 27 26 26
43 47 47 47 49 52 52 51 49 49 42 40 38 38 36 36 35 30 25 24 24 22
35 39 40 39 41 44 49 50 47 43 38 41 39 43 37 38 35 27 23 21 21 22
32 34 34 33 37 39 42 42 40 36 34 37 35 36 34 28 23 21 20 21 22 23
27 28 31 33 35 37 38 35 32 32 36 32 27 26 23 22 20 19 20 20 21 21
24 25 28 30 32 35 36 34 32 26 26 23 22 22 21 20 22 21 21 21 21 21
20 19 20 20 22 23 24 25 24 23 20 18 18 19 20 22 21 20 21 22 22 21
13 10 10 11 17 22 25 26 24 21 18 18 18 18 17 15 15 16 18 17 16 15

GFSNIL_850_spd_051.txt.gz
Wind_Speed
43 46 49 47 51 55 54 48 44 42 44 44 43 43 40 39 36 33 35 37 36 32
42 44 46 47 50 52 56 54 51 50 49 48 48 48 47 47 45 40 38 37 38 37
37 40 43 44 45 47 49 51 52 50 51 50 51 51 46 44 42 41 41 40 41 40
38 39 40 39 38 38 39 40 39 37 40 41 43 43 42 43 44 40 39 49 48 39
39 39 39 39 41 42 44 39 33 41 40 40 42 41 43 46 45 39 39 36 29 32
42 40 41 42 41 41 37 36 42 34 39 36 40 46 46 42 43 37 31 36 31 34
44 44 45 44 42 42 40 40 40 41 38 36 30 34 37 40 39 36 32 33 31 30
38 42 44 46 45 45 44 44 45 44 45 44 43 46 47 42 33 37 35 36 34 30
31 33 36 37 40 41 43 46 48 49 47 49 50 46 41 33 31 32 34 33 32 28
30 28 28 31 33 33 35 35 39 43 43 41 36 35 29 33 36 35 34 33 28 25
29 27 27 29 28 29 30 31 31 29 29 29 28 24 28 29 30 27 24 24 23 21
31 28 27 26 26 24 22 23 28 29 31 30 27 29 29 26 25 24 23 21 20 20
29 27 22 20 18 19 21 25 26 26 28 28 24 22 20 20 21 21 20 20 21 23
25 23 18 14 17 18 20 23 25 25 23 21 19 19 16 15 15 16 18 21 22 20

GFSNIL_850_spd_054.txt.gz
Wind_Speed
40 47 47 43 50 51 51 52 49 45 45 44 41 39 37 35 33 31 33 32 31 25
40 41 47 44 48 50 51 50 53 54 56 55 52 46 44 42 40 33 32 38 40 34
40 42 41 43 48 55 55 57 54 55 57 53 52 51 48 49 46 37 36 35 34 39
39 41 43 47 49 51 56 59 60 61 58 60 58 55 49 45 46 45 43 40 45 41
35 37 41 49 50 51 54 50 55 54 58 60 53 48 46 43 45 38 36 42 42 38
40 41 44 45 45 45 45 43 43 44 46 46 47 41 47 46 40 38 38 38 39 41
43 44 43 42 43 43 43 42 42 44 44 45 43 42 40 38 40 35 40 38 41 37
45 45 42 43 42 42 43 44 42 40 40 39 36 39 34 32 32 33 36 38 33 34
37 38 41 41 41 39 41 41 39 39 38 37 38 43 43 41 39 38 37 36 33 33
34 35 35 34 35 36 36 32 33 33 33 34 34 37 43 42 40 40 35 33 32 35
33 33 30 29 29 28 28 28 29 31 32 34 35 34 30 25 28 29 31 31 29 32
31 30 29 29 27 24 26 28 29 27 26 26 26 26 27 29 28 30 30 30 29 28
29 29 27 25 28 29 25 22 22 24 24 26 28 29 30 28 27 29 29 27 25 23
25 27 34 32 27 24 21 22 23 24 23 23 22 22 20 19 21 23 25 24 23 22

GFSNIL_850_spd_057.txt.gz
Wind_Speed
35 41 39 46 50 55 59 54 45 40 41 43 41 40 37 36 33 35 31 31 30 26
40 37 39 40 43 49 55 59 54 49 46 45 46 45 42 40 38 33 32 36 35 35
42 42 42 43 42 46 50 53 48 54 51 49 48 48 45 45 44 41 39 38 38 38
41 41 41 42 48 44 42 47 47 45 48 49 49 47 43 46 47 44 44 44 40 39
33 37 43 46 47 48 44 44 43 47 44 45 47 46 46 45 45 45 45 44 43 45
41 41 43 45 48 48 49 47 46 44 44 48 46 44 46 46 46 45 45 45 45 44
44 45 46 46 47 48 49 48 49 48 48 49 48 47 48 46 46 46 46 48 48 46
46 46 41 42 43 46 45 48 46 46 48 48 47 49 47 45 46 47 51 47 44 46
39 40 43 43 45 43 44 44 44 44 44 45 46 47 46 45 42 45 42 40 40 41
41 41 44 44 40 43 44 41 43 44 44 44 42 42 43 43 43 40 40 43 44 44
39 42 40 40 42 42 42 42 41 40 39 38 38 39 39 38 38 38 41 47 47 44
38 39 38 39 42 41 39 37 36 33 33 35 36 38 38 37 39 40 41 43 43 38
32 35 37 37 35 35 33 34 38 35 36 35 34 35 34 34 36 39 39 38 35 32
32 33 33 30 29 38 42 40 36 36 34 31 30 31 30 30 27 27 31 29 25 21

GFSNIL_850_spd_060.txt.gz
Wind_Speed
37 38 41 41 53 59 55 47 50 48 42 43 36 40 39 38 38 36 36 33 34 32
37 36 38 39 43 55 54 53 46 53 48 47 45 41 43 42 41 38 38 37 38 38
42 41 41 39 43 45 49 55 57 55 53 47 48 45 44 44 42 41 42 40 40 39
43 41 41 40 44 43 42 50 51 56 60 53 47 45 45 46 46 46 46 46 46 44
35 43 45 45 43 42 42 42 45 53 56 56 61 59 54 53 52 49 48 47 44 45
34 36 42 44 49 47 47 46 47 49 50 53 56 59 59 56 52 50 49 49 48 48
42 40 39 40 43 46 47 48 51 51 49 51 52 48 50 50 51 51 52 52 52 51
43 43 41 41 44 45 47 50 50 51 52 52 49 53 55 53 51 50 51 52 51 50
40 41 45 45 44 43 46 48 50 52 53 53 55 58 56 53 49 49 49 49 47 48
40 41 44 46 45 47 49 47 51 54 51 53 54 54 53 52 50 49 46 44 45 47
40 43 45 44 46 49 50 49 48 48 49 50 51 48 48 47 45 46 47 45 41 40
39 42 43 44 47 47 44 45 47 46 44 44 45 45 44 40 39 40 42 45 46 48
29 41 43 44 45 43 41 40 38 43 44 43 43 43 41 41 41 40 42 44 48 49
27 27 39 39 39 39 39 42 45 46 45 44 42 39 38 36 38 40 40 38 36 34

GFSNIL_850_spd_063.txt.gz
Wind_Speed
35 38 36 39 46 47 50 46 42 42 43 42 37 36 37 37 32 36 36 36 38 33
32 35 35 38 46 51 51 49 46 43 43 44 43 39 37 37 39 38 38 39 36 35
37 37 39 39 43 49 52 51 51 50 50 48 46 45 42 43 45 42 43 42 41 40
39 41 41 42 41 43 46 49 55 57 55 57 57 54 48 50 50 48 47 47 47 47
37 41 42 44 44 43 45 44 46 54 60 58 60 60 61 56 55 54 52 53 49 50
31 35 44 46 46 44 45 46 47 48 55 57 60 60 60 63 60 58 57 55 54 55
32 33 35 40 45 46 46 47 47 50 50 52 56 56 57 64 66 63 63 63 62 60
34 34 35 36 39 44 48 51 50 48 50 51 51 54 55 57 59 61 61 62 62 62
37 39 39 39 40 40 44 47 52 55 56 56 57 57 56 56 56 57 57 58 57 56
43 44 43 44 44 43 45 45 48 52 54 58 60 59 56 55 54 56 56 55 56 56
9 30 45 48 49 50 49 49 49 50 52 54 58 58 58 57 56 55 57 58 58 57
24 16 16 31 51 51 52 53 55 54 53 54 56 56 57 55 54 53 55 57 57 56
30 32 30 25 29 52 54 54 53 52 53 54 54 54 54 56 53 53 53 54 55 53
31 35 34 31 29 33 51 52 50 49 50 50 49 49 49 47 48 47 48 49 49 48

GFSNIL_850_spd_066.txt.gz
Wind_Speed
30 29 30 36 41 44 49 51 44 41 37 34 33 31 36 41 38 35 39 34 33 33
30 32 34 40 42 39 41 44 49 45 44 42 43 43 44 41 40 38 40 38 36 36
29 32 35 38 39 39 41 44 45 45 43 42 45 45 42 44 44 42 42 41 42 41
32 33 34 38 39 39 40 46 48 47 45 45 46 47 48 46 45 47 45 47 47 45
25 32 36 37 38 38 39 42 48 49 50 50 50 50 52 52 53 53 52 50 49 51
26 28 32 35 39 39 40 42 44 48 55 55 54 54 55 57 57 57 58 57 56 57
29 29 30 30 32 36 39 42 45 47 51 53 55 58 62 61 62 64 66 66 66 64
32 32 33 34 35 35 36 39 42 45 47 48 53 55 57 59 62 66 64 66 66 67
26 30 36 38 39 39 40 42 41 44 48 50 51 53 54 56 58 58 60 61 63 62
8 12 24 34 34 42 46 46 47 46 45 48 52 52 54 53 53 55 57 58 58 58
13 13 15 14 24 38 42 43 50 51 50 51 50 48 51 53 54 55 58 58 57 57
18 17 19 21 22 22 31 39 52 52 54 54 54 51 49 49 52 56 57 56 58 60
25 25 24 23 24 28 31 33 43 48 51 53 55 53 52 49 49 55 59 60 63 62
23 25 25 26 27 27 28 33 35 39 48 50 52 54 55 52 52 53 59 58 59 63

GFSNIL_850_spd_069.txt.gz
Wind_Speed
19 20 21 21 23 26 29 33 41 42 40 35 37 44 42 43 40 40 37 39 35 37
20 22 19 20 24 25 26 37 40 40 40 36 37 38 40 41 33 36 33 32 35 45
21 25 22 21 22 26 29 43 41 37 35 33 33 37 41 37 34 37 41 43 47 44
22 24 24 24 25 29 32 37 42 39 40 38 38 38 39 39 41 43 45 48 48 45
20 22 25 27 28 31 37 35 35 37 40 43 46 45 47 48 48 49 51 51 51 51
19 22 23 26 29 32 36 40 40 40 42 46 46 48 50 52 53 54 53 52 52 54
19 20 22 24 27 28 30 35 38 40 41 44 47 50 52 54 55 56 58 58 59 60
17 20 23 26 27 30 32 32 34 37 41 44 48 51 53 56 60 62 62 62 64 64
11 18 21 23 25 29 33 37 37 38 39 42 45 49 53 56 60 61 62 63 63 64
5 9 12 16 24 26 31 31 36 39 42 45 46 47 48 48 52 55 58 61 62 62
6 7 10 13 16 19 25 29 31 37 42 45 48 48 50 52 50 49 53 55 59 61
12 12 12 12 12 16 21 25 28 31 36 35 46 50 53 52 53 54 55 54 52 54
18 18 17 15 15 16 17 21 24 25 30 35 40 46 53 53 51 54 56 55 56 59
15 16 18 19 19 17 16 17 20 22 22 24 31 37 47 51 52 52 51 52 54 58

GFSNIL_850_spd_072.txt.gz
Wind_Speed
19 19 18 16 17 20 22 28 24 37 36 34 33 35 41 39 40 39 38 36 41 40
16 17 14 12 12 13 17 19 24 26 38 34 34 32 37 41 44 47 45 43 44 42
13 14 15 14 13 13 15 19 21 21 33 33 32 31 35 38 39 39 43 44 40 45
10 12 13 16 14 14 15 18 22 23 28 29 31 32 34 35 38 41 44 43 41 45
8 10 11 15 15 15 15 16 21 26 28 29 30 30 32 33 35 38 38 38 41 47
10 8 10 9 13 17 18 19 22 24 29 31 31 33 37 39 39 41 43 44 47 49
12 11 11 12 13 14 15 20 25 28 32 34 36 39 41 43 44 46 49 49 50 52
16 13 13 13 14 17 20 22 24 26 29 33 36 40 42 43 46 51 52 53 56 58
10 14 15 16 19 19 20 19 22 27 31 33 34 36 36 38 44 48 50 54 57 61
6 7 9 13 16 18 21 24 27 28 31 35 35 36 36 36 41 44 45 47 50 55
3 2 7 11 13 15 17 20 22 26 28 28 29 33 36 41 43 46 48 50 50 53
8 6 4 3 5 8 11 15 18 21 24 26 30 37 38 40 38 43 48 49 51 56
9 8 8 9 9 7 7 8 9 11 15 19 22 28 34 38 39 38 38 34 39 47
13 12 12 10 8 8 8 8 9 9 10 12 15 19 24 26 26 26 27 29 33 33

GFSNIL_850_spd_075.txt.gz
Wind_Speed
19 19 18 17 18 20 21 20 21 28 24 25 38 36 35 36 36 37 40 41 38 36
18 18 18 16 14 14 15 17 20 24 27 28 29 33 34 41 39 38 39 42 41 42
12 13 14 10 10 10 10 13 16 21 22 25 33 28 33 34 41 42 40 42 45 46
10 11 11 11 11 9 8 12 14 17 19 22 28 32 28 30 32 43 48 47 45 49
9 9 9 10 10 11 11 11 13 16 15 17 22 28 27 26 27 30 40 40 43 45
7 6 7 7 7 9 10 10 11 15 16 17 20 23 22 25 27 26 28 33 36 39
7 5 4 6 7 7 8 10 12 14 16 18 20 23 25 26 28 30 33 35 38 40
10 10 9 8 9 9 10 11 12 14 16 19 23 26 29 32 36 38 38 39 41 44
7 9 12 12 12 12 12 13 15 17 20 22 26 32 33 35 37 36 35 38 41 44
5 6 8 10 12 13 15 16 17 19 20 22 26 30 30 32 33 34 37 39 40 43
4 5 6 7 9 9 10 13 15 17 19 20 23 27 29 31 31 32 34 38 42 45
5 4 3 3 3 5 7 10 12 14 16 17 20 26 29 32 31 30 30 32 33 40
9 7 6 5 4 5 3 3 2 2 4 6 11 13 16 17 16 17 19 22 28 34
10 10 9 9 9 8 8 8 7 8 8 9 11 12 11 7 5 6 8 10 13 17

GFSNIL_850_spd_078.txt.gz
Wind_Speed
19 18 17 16 15 15 18 19 19 22 27 31 33 32 32 34 34 35 38 37 34 29
20 19 19 18 18 18 18 18 20 18 25 26 33 35 32 35 34 36 34 38 36 39
18 19 18 17 17 15 15 15 16 20 22 23 25 29 37 40 38 37 38 37 38 38
15 16 18 15 14 15 14 14 14 17 20 22 21 28 28 34 36 39 42 39 36 37
17 15 13 14 14 13 12 12 15 16 19 20 20 23 29 31 32 29 32 45 44 45
15 14 14 14 13 12 10 10 12 16 17 16 16 19 22 27 27 25 26 24 32 50
14 10 9 8 9 10 11 10 8 9 12 12 12 14 16 21 23 23 23 25 26 28
13 12 10 10 12 11 10 10 9 9 10 9 15 21 21 22 23 23 25 27 29 32
12 10 10 10 10 11 12 12 14 15 16 19 22 23 24 25 27 29 30 31 31 31
10 8 7 9 10 11 12 12 12 13 14 17 21 22 23 24 26 27 30 35 35 34
11 5 4 5 6 8 9 8 9 10 11 12 14 18 21 23 22 20 22 25 28 31
7 2 3 5 6 8 10 9 8 7 7 10 13 17 21 22 18 21 22 24 25 27
3 6 6 5 6 6 6 6 5 3 3 4 7 7 7 6 8 11 13 15 15 16
9 9 9 8 9 9 10 10 9 7 7 9 9 9 4 3 3 2 3 5 8 11

GFSNIL_850_spd_081.txt.gz
Wind_Speed
15 15 14 12 11 14 16 14 15 15 18 21 27 33 33 35 34 32 33 33 30 28
19 16 14 14 11 11 12 14 15 18 20 20 24 30 31 32 32 31 33 33 29 29
17 14 14 14 16 16 12 14 16 17 20 20 28 29 30 29 30 30 32 32 36 33
18 15 15 14 13 11 11 13 12 15 17 17 20 26 32 33 32 34 35 37 39 39
15 15 14 13 10 12 11 10 12 13 14 18 18 16 24 31 34 37 36 38 38 38
17 12 10 11 10 10 9 8 9 12 15 15 17 20 19 23 26 27 30 32 30 32
17 15 13 13 7 6 7 5 5 11 12 12 12 13 15 18 22 26 25 24 21 22
20 18 16 15 16 15 13 11 11 9 12 15 15 16 16 17 19 19 18 16 17 19
20 19 18 18 18 17 16 16 13 14 17 17 18 18 16 17 19 19 20 20 21 24
18 17 15 16 15 16 16 18 19 19 20 19 17 18 19 20 22 23 25 27 29 31
15 15 13 11 12 10 10 11 11 12 13 15 15 18 20 22 21 21 22 23 24 26
14 12 10 10 9 6 5 7 6 5 4 5 6 8 10 14 13 12 13 14 15 17
17 16 13 11 10 8 6 6 4 1 2 5 4 7 9 9 10 10 9 8 7 10
16 14 14 12 10 11 10 9 7 7 9 10 8 8 6 4 4 4 4 3 4 8

GFSNIL_850_spd_084.txt.gz
Wind_Speed
19 17 17 16 14 16 13 15 12 10 10 22 24 25 30 32 44 38 31 29 30 28
19 14 15 14 13 12 13 13 10 8 12 16 19 27 30 28 40 36 31 29 28 30
21 17 17 16 13 11 9 10 12 13 15 16 19 24 31 35 35 33 29 28 28 29
18 16 14 14 14 14 10 9 9 12 14 17 17 20 24 26 29 31 32 28 29 27
18 17 14 13 12 13 12 10 9 9 11 16 18 22 26 27 29 27 28 27 33 35
15 16 12 12 12 13 10 9 8 10 7 10 14 15 15 20 29 26 29 31 31 32
20 18 17 17 14 13 10 9 9 12 12 15 13 15 14 12 14 20 21 23 25 25
21 20 19 18 17 16 15 13 13 14 14 15 15 14 13 13 14 13 10 15 16 19
19 17 16 17 17 16 15 14 14 14 14 15 16 14 14 14 16 15 17 19 18 19
20 20 21 21 19 19 18 15 13 13 14 13 13 14 14 15 15 17 18 18 19 18
19 18 17 18 19 18 18 19 17 15 14 12 12 15 16 17 18 20 21 22 22 22
18 17 15 16 17 17 15 15 12 11 9 7 7 7 9 8 9 10 11 10 10 11
16 18 20 18 16 16 14 15 11 6 7 7 6 4 5 6 7 7 6 4 5 10
16 17 14 17 15 15 15 13 14 14 16 14 12 11 8 9 8 8 7 6 8 11

GFSNIL_850_spd_087.txt.gz
Wind_Speed
21 21 18 15 18 17 18 19 19 18 20 22 23 33 32 29 43 44 40 40 36 30
22 24 18 19 17 11 13 15 18 17 15 14 11 22 34 29 29 44 43 37 33 31
24 21 18 15 15 12 13 15 15 13 12 12 14 16 20 31 35 39 40 38 33 30
20 20 20 17 15 12 13 12 12 12 13 14 16 15 21 26 29 42 40 35 31 26
24 21 18 16 16 14 11 10 10 11 13 14 14 16 18 30 29 32 35 30 27 27
20 18 18 17 15 14 12 11 10 10 9 13 16 16 19 20 26 31 29 30 29 29
22 21 18 18 18 16 14 15 14 14 14 13 15 16 17 20 23 24 25 27 27 27
20 19 20 20 19 18 17 16 15 15 11 18 15 13 14 13 13 10 16 19 22 23
20 21 20 20 20 20 19 17 16 17 17 16 15 14 13 13 14 15 16 16 18 20
21 19 19 21 25 25 23 20 19 18 18 18 17 17 17 17 16 15 18 16 15 15
19 19 20 20 19 21 23 22 21 21 21 21 19 18 18 19 18 17 17 16 16 13
17 18 19 22 23 21 21 21 20 18 18 19 17 15 13 13 17 17 16 14 14 11
17 17 19 18 19 17 15 18 18 18 15 13 14 11 12 11 12 13 12 10 8 5
17 17 19 15 17 14 16 18 19 18 17 15 10 10 10 11 5 5 6 6 8 12

GFSNIL_850_spd_090.txt.gz
Wind_Speed
25 23 21 21 20 18 17 19 21 23 24 25 24 25 27 31 34 40 44 47 43 37
25 23 24 18 16 15 15 19 22 23 21 22 24 25 29 36 39 38 47 45 45 41
23 21 21 16 17 16 15 18 19 20 21 21 22 20 20 30 37 40 40 50 43 43
23 21 20 16 17 15 15 18 19 17 17 16 16 12 13 31 25 34 41 43 44 39
20 21 19 18 17 16 15 15 14 14 14 14 13 14 14 17 24 33 38 47 39 31
23 21 20 18 15 16 14 13 13 13 13 14 14 16 14 11 16 25 30 40 40 34
27 22 21 19 19 17 16 15 14 14 14 13 15 16 14 14 16 23 28 27 32 32
28 24 22 19 17 16 17 16 15 15 16 13 15 17 17 17 16 21 27 30 32 32
25 23 22 20 20 18 17 16 16 16 16 17 14 16 15 18 21 21 23 27 25 24
24 23 25 26 27 21 20 19 18 17 17 18 17 16 15 14 17 20 20 19 17 19
20 21 23 24 24 24 23 23 21 18 18 19 19 19 18 17 19 19 20 20 19 17
8 11 17 22 22 22 24 23 21 20 18 16 16 18 19 21 21 22 21 20 19 19
15 13 14 12 14 17 18 21 19 20 17 14 14 13 15 17 20 21 19 15 15 15
19 18 19 18 15 14 15 15 17 18 17 16 14 14 11 10 13 12 12 13 13 12

GFSNIL_850_spd_093.txt.gz
Wind_Speed
38 35 31 31 32 30 25 21 20 22 24 23 26 25 26 27 30 30 33 34 40 50
34 31 30 29 27 23 18 16 15 16 18 22 23 24 24 24 28 31 34 34 37 45
26 26 24 25 24 20 17 16 14 17 20 23 25 24 23 26 28 35 37 34 47 47
23 25 24 24 20 18 16 13 14 16 17 21 20 21 25 26 28 31 37 39 47 45
24 21 22 20 17 17 14 12 13 14 15 15 16 16 17 19 17 28 33 35 46 43
23 24 24 21 20 19 15 13 11 12 11 13 14 15 17 13 14 25 25 27 41 46
30 29 26 24 22 19 18 15 13 12 12 15 15 17 15 14 10 12 24 32 35 37
33 31 28 24 20 19 16 14 13 12 13 13 14 15 14 14 13 15 21 25 31 37
21 28 28 24 23 20 18 17 15 14 14 16 16 14 16 15 15 15 19 21 19 31
19 23 27 27 24 22 18 17 15 14 14 15 15 12 13 15 18 19 21 23 23 27
7 16 22 23 24 22 20 17 15 14 14 14 14 13 12 13 13 16 20 21 23 24
14 12 7 15 20 21 20 19 17 16 16 15 14 15 15 16 17 18 19 18 19 18
17 14 14 12 8 9 13 17 16 17 15 15 15 14 13 15 18 21 20 19 18 18
17 18 16 16 14 12 9 9 9 11 13 12 11 12 11 11 12 14 17 18 16 14

GFSNIL_850_spd_096.txt.gz
Wind_Speed
41 44 40 44 43 39 34 35 34 32 29 29 29 28 26 23 26 26 27 31 35 35
32 33 35 38 35 28 27 30 28 28 27 25 21 22 22 26 28 27 26 27 33 32
26 26 21 19 28 27 26 24 23 22 21 20 21 22 23 24 25 25 27 29 33 33
15 13 13 23 30 25 21 20 21 19 19 21 21 21 22 24 24 24 24 28 31 36
16 14 20 29 25 23 21 21 19 20 20 19 19 19 20 22 23 24 25 26 29 46
9 18 18 26 24 23 22 21 20 19 18 16 15 14 13 13 14 17 23 24 29 29
11 12 23 30 26 24 22 20 16 15 14 13 13 12 13 13 14 14 14 23 18 39
18 20 27 30 28 23 21 18 17 16 13 12 14 13 13 13 13 13 10 18 26 26
14 12 22 23 25 24 22 21 18 15 13 13 10 8 9 10 10 12 14 16 20 27
9 8 18 28 31 30 25 19 16 14 12 10 9 8 10 9 11 13 14 14 15 16
16 9 5 6 26 26 23 19 16 14 12 10 9 7 9 8 11 14 18 17 16 15
21 17 13 12 11 15 18 19 17 14 12 10 8 9 8 8 11 13 14 15 15 16
21 20 16 15 15 14 11 11 10 11 10 8 7 9 10 10 12 14 14 14 13 14
21 22 20 17 16 15 15 14 12 12 13 11 10 10 7 8 10 12 14 14 14 14

GFSNIL_850_spd_099.txt.gz
Wind_Speed
33 36 38 37 40 41 45 37 40 40 44 42 34 32 28 25 28 26 27 28 27 33
27 31 34 35 35 38 44 42 36 37 41 39 35 32 27 27 27 26 24 24 25 29
22 23 26 30 31 31 37 19 24 31 33 34 29 28 26 27 26 25 25 26 26 27
15 15 20 22 21 22 18 22 32 28 30 28 25 23 25 25 23 23 24 25 27 29
7 11 13 17 20 19 24 19 26 26 23 22 21 21 22 22 23 25 24 24 25 29
8 8 13 15 14 14 18 19 22 22 20 20 19 20 22 22 23 24 22 21 25 29
6 9 11 14 21 21 22 25 27 23 22 21 19 18 18 18 16 15 17 19 21 26
4 4 17 17 22 24 27 29 26 23 21 19 17 16 17 16 15 14 18 17 15 17
5 4 8 22 20 29 29 31 27 23 21 17 15 14 13 15 13 13 14 14 12 13
17 12 7 5 15 25 30 31 28 24 20 17 14 13 12 11 12 14 12 12 10 10
24 20 18 9 12 18 23 29 27 21 17 12 13 12 10 12 11 11 12 13 12 13
25 24 22 21 17 15 8 19 22 18 14 12 10 12 11 11 11 12 12 13 14 14
25 24 24 23 21 18 16 15 17 17 14 11 8 9 10 11 12 12 12 12 12 14
26 26 24 21 20 19 18 15 17 19 18 15 12 11 8 8 10 11 14 13 12 10

GFSNIL_850_spd_102.txt.gz
Wind_Speed
23 31 35 33 32 33 36 39 40 40 35 47 44 36 45 36 37 30 33 34 35 35
19 26 31 32 31 32 27 26 31 40 43 29 31 50 36 38 36 32 34 32 32 33
16 24 29 30 30 30 28 31 30 34 34 32 42 40 40 36 34 30 31 31 30 30
10 16 21 24 28 33 34 33 37 31 20 19 36 36 36 29 30 27 30 30 28 29
6 10 14 19 19 25 31 31 35 31 18 25 25 28 28 31 30 27 28 28 27 29
1 8 12 14 18 24 26 31 32 32 38 46 33 28 30 28 28 28 26 26 28 29
9 2 4 10 10 16 24 27 28 32 32 30 29 27 26 25 26 27 26 25 26 26
10 7 5 7 12 19 21 24 29 31 32 30 26 25 26 27 27 22 23 22 23 25
13 8 6 3 13 21 27 30 30 31 27 26 24 26 26 24 24 22 22 21 22 21
20 20 17 13 7 9 23 32 34 35 29 26 26 25 22 22 21 20 21 20 19 21
26 23 20 17 13 5 7 15 18 25 25 27 24 21 19 19 18 17 16 16 16 15
25 24 23 24 23 20 13 11 16 20 17 20 17 18 17 17 16 15 15 14 14 14
26 24 24 23 22 22 20 20 15 15 19 18 14 14 15 12 13 14 13 13 12 14
26 26 25 23 23 24 24 22 22 20 20 20 16 13 10 9 11 11 12 11 10 10

GFSNIL_850_spd_105.txt.gz
Wind_Speed
24 29 34 36 39 31 33 34 34 41 45 46 44 50 44 39 44 38 34 30 28 28
17 20 27 26 34 33 30 30 28 37 38 39 36 33 32 36 38 38 34 30 28 25
11 12 15 25 30 30 36 29 28 30 36 41 38 33 34 30 29 35 32 29 26 26
11 11 11 15 22 25 27 28 26 31 36 33 42 36 32 26 27 29 30 31 28 30
16 9 12 16 18 21 30 30 28 28 28 30 36 33 34 25 38 32 35 31 29 27
19 13 6 13 18 18 23 27 30 27 28 30 29 26 22 24 48 44 30 29 26 26
22 19 12 7 5 21 21 23 25 26 28 30 27 26 27 26 29 29 27 25 23 24
20 17 11 7 14 6 19 18 18 23 33 25 27 32 29 23 27 25 24 24 23 21
23 20 17 16 8 10 6 18 25 21 28 31 33 31 31 29 24 24 24 24 25 27
27 25 23 22 16 7 9 6 11 20 25 25 26 24 23 24 24 24 23 24 24 26
27 27 26 24 22 20 16 11 3 6 14 16 26 27 25 24 25 23 22 22 23 26
28 28 27 28 27 25 21 19 15 9 8 10 17 20 25 25 22 20 19 18 18 18
27 29 30 29 30 28 26 26 24 22 19 16 17 14 11 16 16 16 14 13 13 19
28 28 29 29 29 30 30 30 31 31 28 26 25 21 16 11 11 10 10 10 9 7

GFSNIL_850_spd_108.txt.gz
Wind_Speed
26 27 27 30 34 38 48 40 29 39 37 34 37 40 47 42 43 36 30 25 22 39
24 26 24 24 26 34 37 43 29 35 31 29 35 41 44 42 41 38 42 34 26 40
25 25 25 23 19 21 25 27 32 32 29 28 34 40 43 36 41 38 34 35 32 37
27 23 25 23 20 19 22 27 32 34 31 30 33 34 41 41 40 40 33 35 34 36
26 24 23 22 21 16 16 24 28 34 32 32 34 35 37 39 36 35 32 29 32 33
26 23 24 19 16 17 15 26 29 28 29 28 29 36 39 42 39 36 30 23 31 27
29 26 24 21 16 16 14 14 21 17 23 21 28 31 36 41 40 33 33 26 26 26
29 27 25 24 18 11 14 14 10 20 20 23 23 24 28 34 33 34 28 32 22 23
30 30 29 27 26 20 13 14 10 3 15 13 23 23 23 25 25 25 23 26 27 24
32 31 31 30 27 26 23 15 12 8 5 9 15 25 25 25 28 26 23 29 32 27
33 33 32 32 32 30 28 26 22 17 14 5 2 20 23 25 29 31 28 27 23 24
30 31 32 34 36 36 34 33 32 28 24 21 16 10 5 19 24 23 24 22 20 20
27 29 31 32 33 34 36 37 35 35 34 32 27 21 16 6 14 20 17 14 13 15
27 28 28 29 31 32 34 35 37 38 38 38 36 32 26 22 15 15 14 13 9 5

GFSNIL_850_spd_111.txt.gz
Wind_Speed
23 25 27 26 27 30 31 33 35 34 41 37 34 37 37 46 47 49 47 47 39 36
23 24 26 26 25 27 27 31 32 29 35 39 28 41 43 44 44 42 47 49 45 40
26 24 25 27 26 27 27 28 26 23 26 34 32 37 39 42 43 43 45 38 39 38
28 25 23 24 23 24 25 25 24 28 26 31 34 35 40 43 42 38 42 43 47 51
27 26 25 24 23 22 23 21 18 19 24 29 30 34 39 38 41 40 42 33 43 42
27 27 27 26 25 23 21 20 19 19 22 22 24 34 36 35 38 38 41 39 34 32
28 28 27 26 25 23 21 18 14 17 23 26 21 22 28 33 34 32 35 27 31 25
28 28 28 28 26 24 21 18 16 14 9 4 12 26 35 25 28 30 33 29 28 26
29 30 32 32 31 28 27 24 19 16 13 10 4 23 27 24 34 33 30 32 24 19
28 32 34 34 35 36 35 31 29 28 22 17 13 5 18 19 27 25 26 31 27 23
30 31 32 35 36 37 37 39 38 37 34 29 27 18 13 13 19 23 25 27 26 25
29 31 32 34 36 37 38 40 41 42 42 40 35 29 20 9 10 14 21 16 18 21
29 30 32 32 34 34 36 38 40 42 43 43 43 38 32 26 19 19 18 16 10 9
29 31 30 30 31 31 34 35 37 39 41 43 43 41 39 36 33 30 26 26 24 19

GFSNIL_850_spd_114.txt.gz
Wind_Speed
21 22 23 23 25 27 30 30 28 29 30 30 28 36 40 32 41 47 42 40 34 43
23 24 24 23 23 24 27 31 32 31 33 32 29 29 38 34 36 40 41 40 43 51
23 23 24 25 24 24 24 27 29 30 32 32 29 28 32 36 35 42 45 45 47 49
24 23 22 23 25 25 24 26 26 27 29 28 28 28 30 34 35 33 36 45 45 49
22 23 24 23 24 25 24 24 24 25 26 26 23 26 30 29 29 35 35 42 43 47
23 24 24 24 23 23 24 23 21 22 22 23 22 18 22 24 30 32 38 40 47 45
26 26 26 26 25 24 23 21 19 18 18 17 19 19 19 23 25 33 37 43 42 43
27 27 27 27 28 26 24 24 22 18 16 16 17 16 17 20 26 32 46 28 37 33
27 28 29 31 31 29 28 29 28 26 25 22 19 20 15 14 20 20 23 29 30 25
28 29 31 32 33 36 36 32 32 33 34 33 27 25 14 8 10 15 15 20 28 27
27 28 29 31 33 34 37 38 39 39 39 41 37 27 21 16 8 2 12 13 15 22
27 26 27 29 31 32 33 35 38 40 42 44 44 39 30 26 25 22 18 10 4 13
26 27 27 27 28 28 29 31 33 36 38 39 42 44 42 36 33 32 30 25 20 12
24 26 27 26 26 26 27 28 30 32 34 36 38 39 40 40 38 36 34 34 33 29

GFSNIL_850_spd_117.txt.gz
Wind_Speed
17 16 17 18 20 22 23 24 24 25 25 25 25 27 29 29 34 37 36 40 43 44
18 18 18 17 17 19 21 22 23 25 27 28 27 27 27 27 27 31 36 38 40 42
17 17 18 18 18 19 21 22 22 24 26 27 27 26 25 26 27 27 34 36 36 39
20 20 20 20 20 20 20 21 23 23 25 27 27 26 26 25 27 25 33 35 36 40
20 20 21 22 21 21 20 20 21 22 23 23 26 26 25 24 24 24 27 34 38 35
23 23 24 24 24 22 21 21 20 19 20 21 23 26 27 24 21 22 28 30 32 36
25 26 28 27 27 26 26 23 21 22 22 21 20 21 22 22 20 18 23 24 31 35
24 25 27 28 30 29 27 27 27 27 27 26 24 26 23 20 16 19 21 27 29 30
24 25 24 27 30 31 32 33 32 33 35 36 32 27 25 18 17 13 12 21 25 33
23 23 26 27 28 31 33 34 35 36 38 40 41 35 28 24 21 20 16 8 12 14
22 23 23 24 26 28 30 33 34 35 38 40 41 40 37 31 29 26 27 21 16 9
24 22 22 24 26 27 28 31 33 34 35 38 39 40 40 38 37 35 35 31 27 23
23 24 24 25 26 26 27 29 31 33 35 34 36 37 38 39 38 37 38 38 36 31
20 22 23 25 24 25 27 28 30 32 33 35 35 35 34 35 36 36 35 36 37 36

GFSNIL_850_spd_120.txt.gz
Wind_Speed
16 15 16 17 17 19 20 19 18 18 17 17 16 17 18 21 24 25 26 28 35 39
18 17 18 17 18 18 19 19 19 19 18 17 16 16 19 21 20 23 25 27 26 36
19 18 17 16 16 17 19 19 18 18 18 18 18 18 18 21 20 22 23 25 25 31
20 19 20 20 20 20 19 19 19 20 20 19 20 18 18 19 19 21 20 22 23 28
17 19 21 22 22 21 20 21 21 21 21 19 20 20 22 22 21 18 17 19 23 26
21 21 23 22 22 22 23 22 22 22 23 23 24 24 23 21 21 16 15 16 16 23
22 24 25 24 24 25 25 25 25 26 29 29 27 27 27 24 20 16 13 13 16 14
22 22 22 22 24 26 27 30 31 32 34 36 35 34 32 28 24 21 17 13 12 14
18 19 20 21 24 25 27 29 33 35 37 39 40 36 34 31 28 25 23 22 18 16
16 18 20 21 22 24 28 29 32 35 36 37 37 37 36 35 34 32 31 31 29 25
18 18 19 20 22 25 27 29 33 34 34 35 36 34 34 34 36 37 38 38 36 35
19 19 19 21 23 24 27 29 33 34 34 36 36 35 35 34 36 39 40 40 41 40
18 19 20 21 22 24 28 30 30 32 33 33 36 37 38 38 38 39 38 38 40 41
18 20 22 23 23 25 27 29 31 32 34 35 36 37 36 38 39 38 38 39 40 38

GFSNIL_850_spd_123.txt.gz
Wind_Speed
16 16 18 20 20 20 21 21 20 19 19 17 17 17 18 18 19 20 23 25 27 28
13 14 14 14 16 17 18 19 20 20 18 19 19 18 17 18 18 23 23 24 27 29
13 14 14 14 13 14 16 17 17 18 19 19 18 18 18 16 17 20 23 23 23 26
13 14 14 15 15 15 15 15 16 17 17 18 18 17 14 16 17 17 17 19 20 21
16 18 19 20 19 18 17 16 16 17 18 19 20 20 17 15 14 14 12 12 15 16
19 21 23 23 23 22 21 20 21 24 27 29 26 23 19 17 17 14 13 11 10 12
19 20 21 21 21 22 23 24 26 29 31 31 31 28 25 23 21 19 18 15 12 13
18 17 19 20 21 21 20 24 25 26 27 30 32 32 32 30 29 28 25 23 20 19
15 15 18 18 20 20 21 23 25 27 27 29 31 30 30 32 34 35 35 34 30 27
15 17 18 18 18 19 21 23 25 27 27 29 29 29 29 30 32 34 36 38 40 39
15 16 16 16 18 20 21 24 25 25 28 29 31 30 31 30 32 33 35 37 38 40
16 16 16 17 19 21 22 24 26 27 26 29 30 31 32 32 33 34 35 35 36 36
15 16 17 17 19 23 23 25 25 27 29 29 32 32 33 34 34 35 35 35 35 35
15 17 18 19 21 22 23 24 26 28 29 31 33 34 33 33 35 36 35 36 36 34